TimeEST,TemperatureF,Dew PointF,Humidity,Sea Level PressureIn,VisibilityMPH,Wind Direction,Wind SpeedMPH,Gust SpeedMPH,PrecipitationIn,Events,Conditions,WindDirDegrees,DateUTC
12:55 AM,26.4,21.4,81,30.01,10.0,NNW,13.8,-,0.00,,Freezing Rain,340,2012-12-27 05:55:00
1:19 AM,26.6,21.2,80,30.03,10.0,NNW,10.4,-,N/A,,Freezing Rain,330,2012-12-27 06:19:00
1:55 AM,26.2,20.7,79,30.04,10.0,North,13.8,-,0.00,,Overcast,350,2012-12-27 06:55:00
2:12 AM,26.6,21.2,80,30.03,10.0,North,12.7,-,N/A,,Overcast,350,2012-12-27 07:12:00
2:55 AM,26.1,20.5,79,30.05,10.0,NNW,10.4,-,N/A,,Overcast,340,2012-12-27 07:55:00
3:55 AM,24.6,19.6,81,30.08,10.0,NNW,10.4,-,N/A,,Overcast,340,2012-12-27 08:55:00
4:55 AM,25.3,20.3,81,30.09,10.0,NW,6.9,-,N/A,,Overcast,320,2012-12-27 09:55:00
5:55 AM,25.9,20.8,81,30.10,10.0,WNW,6.9,-,N/A,,Overcast,300,2012-12-27 10:55:00
6:52 AM,26.6,21.2,80,30.11,10.0,NW,5.8,-,N/A,,Overcast,310,2012-12-27 11:52:00
6:54 AM,26.6,21.2,80,30.12,10.0,NW,5.8,-,N/A,,Overcast,310,2012-12-27 11:54:00
6:55 AM,26.1,21.6,83,30.12,10.0,NW,5.8,-,N/A,,Overcast,320,2012-12-27 11:55:00
7:04 AM,26.6,21.2,80,30.12,10.0,NW,5.8,-,N/A,,Overcast,310,2012-12-27 12:04:00
7:55 AM,26.4,22.1,84,30.13,10.0,NW,5.8,-,N/A,,Overcast,310,2012-12-27 12:55:00
8:55 AM,26.8,22.8,85,30.14,10.0,NW,6.9,-,N/A,,Overcast,310,2012-12-27 13:55:00
9:55 AM,28.0,23.7,84,30.16,10.0,WNW,6.9,-,N/A,,Overcast,300,2012-12-27 14:55:00
10:31 AM,28.4,24.8,86,30.13,10.0,West,6.9,-,N/A,,Overcast,280,2012-12-27 15:31:00
10:55 AM,29.1,24.8,84,30.18,10.0,West,5.8,-,N/A,,Overcast,280,2012-12-27 15:55:00
11:55 AM,29.8,25.0,82,30.18,10.0,WNW,6.9,-,N/A,,Overcast,290,2012-12-27 16:55:00
12:38 PM,30.2,26.6,86,30.16,10.0,WNW,6.9,-,N/A,,Overcast,300,2012-12-27 17:38:00
12:55 PM,30.7,25.7,82,30.15,10.0,WNW,5.8,-,N/A,,Mostly Cloudy,290,2012-12-27 17:55:00
1:55 PM,31.6,25.9,79,30.13,10.0,NNW,5.8,-,N/A,,Scattered Clouds,330,2012-12-27 18:55:00
2:55 PM,32.0,26.1,79,30.13,10.0,WNW,5.8,-,N/A,,Partly Cloudy,290,2012-12-27 19:55:00
3:55 PM,31.1,26.1,82,30.14,10.0,West,8.1,-,N/A,,Scattered Clouds,270,2012-12-27 20:55:00
4:55 PM,30.0,26.1,85,30.16,10.0,West,5.8,-,N/A,,Scattered Clouds,270,2012-12-27 21:55:00
5:55 PM,29.1,26.2,89,30.18,10.0,West,4.6,-,N/A,,Scattered Clouds,270,2012-12-27 22:55:00
6:55 PM,30.0,26.6,87,30.19,10.0,West,3.5,-,N/A,,Overcast,280,2012-12-27 23:55:00
7:55 PM,29.7,26.6,88,30.18,10.0,Calm,Calm,-,N/A,,Overcast,0,2012-12-28 00:55:00
8:55 PM,29.7,27.0,90,30.16,10.0,Calm,Calm,-,N/A,,Overcast,0,2012-12-28 01:55:00
9:55 PM,29.3,26.8,90,30.16,10.0,SSE,3.5,-,N/A,,Overcast,160,2012-12-28 02:55:00
10:55 PM,29.3,27.0,91,30.17,10.0,Calm,Calm,-,N/A,,Overcast,0,2012-12-28 03:55:00
11:55 PM,28.8,27.0,93,30.17,10.0,Calm,Calm,-,N/A,,Overcast,0,2012-12-28 04:55:00